Вернуться в каталог

STARLINK-11673

АктивенСвязьVLEO
NORAD 64318·PAYLOAD·🇺🇸 United States

Запущен Jun 10, 2025 с Cape Canaveral Space Force Station

Loading…

Ближайшие Пролёты (ближайшие 24 часа)

TLE

СвежийSource: CelesTrak SupGP

Эпоха: Sep 14, 2026, 14:50 UTC

1 64318C 25124B   26257.61854167  .00062940  00000+0  48913-3 0  2571
2 64318  43.0002 330.4098 0001657 260.8318 259.5574 15.70793677    17

Отслеживайте STARLINK-11673 в реальном времени с AllMySat

Download on the App Store